CZ-3B DEB, 40169

Orbit data source: Space-Track

CZ-3B DEB, 40169 is space debris in HEO originally from a launch on Sat, 04 Sep 2010 UTC launched from the Xichang Space Center, China (XSC). Debris objects in space refer to the collection of defunct objects orbiting the Earth. Examples of debris include non-operational satellites, rocket bodies, and fragments generated from explosions, collisions, or faulty payload assembly.

Loading next visibility...
Identifier
40169, 2010-042W
Orbit
HEO
Country
Flag of CNCN / PRC
Related business
Manufacturer
CALT
Mission
Spacecraft
Bus & Motor
Unknown
Mass
Unknown
Launch date (UTC)
2010-09-04 (16 years ago)
Launch vehicle
Unknown
Launch site
Xichang Space Center, China (XSC)
Object type
Payload
Rocket body
Debris
Shape & HBR
Unknown shape, 0.2 m
Radar Cross Section
Medium (>0.1 m² and <1 m²)

Expand to show TLE details & history
Last TLE update: 2 days ago

TLE from 2 days ago
0 CZ-3B DEB
1 40169U 10042W   26124.53523236 -.00000110  00000-0  00000-0 0  9994
2 40169  26.1857 247.7953 7221871  19.0298   7.5602  1.93998218 96954
Epoch: 2026-05-04T12:50Z
TLE epoch observation values (Epoch: 2026-05-04T12:50:44.075Z)
Latitude
25.74394°
Longitude
-90.51213°
Altitude
3,105.733 km
Speed
8.331 km/s
True Right ascension
21h 38m 22s
True Declination
25° 38' 34"
Sunlit
Object was in daylight at epoch
Visualization orbit readout
Latitude
Unknown
Longitude
Unknown
Altitude
Unknown
Speed
Unknown
Apparent Right ascension
Unknown
Apparent Declination
Unknown
Sunlit
N/A
Visualization observer readout
Local Sidereal Time
20:14:22
Azimuth
Unknown
Elevation
Unknown
Doppler factor
Unknown
Orbital elements
Apogee altitude
40,396.033 km
Perigee altitude
1,167.192 km
Semi-major axis
27,159.75 km
Eccentricity
0.72219
Inclination
26.1857°
RAAN
247.7953°
Arg. of periapsis
19.0298°
True anomaly
58.06937°
Mean anomaly
7.5602°
Eccentric anomaly
25.1371°
Mean motion
0.4849 °/min
Orbital period
742.42 mins
BSTAR
0
Loading maneuver chart data...
Computing Atmospheric mass density...
Loading historical data...
Loading historical data...
Loading historical data...
Loading historical data...
Loading historical data...
Loading historical data...
Loading historical data...

Documentation

Showing up to 5 results
|